N5JNG Weather Reports


time (UTC)temp
C
wind
direction
speed
KPH
gust
KPH
rain 1hr
cm
rain 24hr
cm
rain mn
cm
humidity
%
barometer
mb
20260504100247 20 125 8.0 12.9 0.00 0.00 0.00 100 1013.7
20260504081741 20 127 6.4 11.3 0.00 0.00 0.00 100 1014.4
20260504081242 20 127 6.4 11.3 0.00 0.00 0.00 100 1014.4
20260504080742 20 125 8.0 11.3 0.00 0.00 0.00 100 1014.5
20260504070240 20 132 8.0 14.5 0.00 0.00 0.00 100 1015.6
20260504060238 20 119 9.7 12.9 0.00 0.00 0.00 100 1016.3
20260504050736 20 133 8.0 12.9 0.00 0.00 0.00 100 1016.8
20260504050235 20 112 8.0 11.3 0.00 0.00 0.00 100 1016.9
20260504045734 20 121 8.0 12.9 0.00 0.00 0.00 100 1017.1
20260504045234 20 127 8.0 12.9 0.00 0.00 0.00 100 1017.2
20260504044734 20 121 8.0 11.3 0.00 0.00 0.00 100 1017.0
20260504044234 20 111 8.0 11.3 0.00 0.00 0.00 100 1017.1
20260504043734 19 122 8.0 11.3 0.00 0.00 0.00 100 1017.2
20260504043234 19 115 8.0 11.3 0.00 0.00 0.00 100 1017.3
20260504042735 19 112 8.0 11.3 0.00 0.00 0.00 100 1017.4
20260504042234 19 118 8.0 11.3 0.00 0.00 0.00 100 1017.4
20260504041734 19 111 8.0 11.3 0.00 0.00 0.00 100 1017.4
20260504041234 19 110 8.0 9.7 0.00 0.00 0.00 100 1017.4
20260504040732 19 113 8.0 12.9 0.00 0.00 0.00 100 1017.4
20260504040232 19 115 8.0 12.9 0.00 0.00 0.00 100 1017.3
20260504035732 19 109 9.7 11.3 0.00 0.00 0.00 100 1017.2
20260504035232 19 105 9.7 11.3 0.00 0.00 0.00 100 1017.2
20260504034232 19 109 9.7 11.3 0.00 0.00 0.00 100 1017.1
20260504033732 19 126 8.0 11.3 0.00 0.00 0.00 100 1017.1
20260504033232 19 108 8.0 9.7 0.00 0.00 0.00 100 1017.2
20260504032732 19 108 6.4 9.7 0.00 0.00 0.00 100 1017.2
20260504031731 19 108 6.4 9.7 0.00 0.00 0.00 100 1017.2
20260504031230 19 108 8.0 9.7 0.00 0.00 0.00 100 1017.2
20260504030730 20 108 6.4 9.7 0.00 0.00 0.00 100 1017.0
20260504030230 20 109 6.4 9.7 0.00 0.00 0.00 100 1017.0
20260504025730 20 109 6.4 9.7 0.00 0.00 0.00 100 1016.9
20260504024730 19 107 8.0 9.7 0.00 0.00 0.00 100 1016.8
20260504024231 20 107 8.0 9.7 0.00 0.00 0.00 100 1016.7
20260504023230 20 105 8.0 9.7 0.00 0.00 0.00 100 1016.7
20260504022731 20 105 6.4 9.7 0.00 0.00 0.00 100 1016.8
20260504022230 20 105 6.4 8.0 0.00 0.00 0.00 100 1016.8
20260504021731 20 101 6.4 9.7 0.00 0.00 0.00 100 1016.8
20260504021230 20 101 8.0 11.3 0.00 0.00 0.00 100 1016.7
20260504020731 20 100 8.0 11.3 0.00 0.00 0.00 100 1016.7
20260504020230 20 91 8.0 11.3 0.00 0.00 0.00 100 1016.7
20260504015730 20 99 8.0 11.3 0.00 0.00 0.00 100 1016.6
20260504014230 21 92 4.8 9.7 0.00 0.00 0.00 100 1016.5
20260504013730 21 93 6.4 9.7 0.00 0.00 0.00 100 1016.6
20260504013229 21 93 8.0 11.3 0.00 0.00 0.00 100 1016.5
20260504012726 21 96 8.0 11.3 0.00 0.00 0.00 100 1016.5
20260504012224 21 93 8.0 11.3 0.00 0.00 0.00 100 1016.4
20260504011722 21 94 9.7 11.3 0.00 0.00 0.00 100 1016.5
20260504011223 22 98 8.0 11.3 0.00 0.00 0.00 100 1016.5
20260504010722 22 105 8.0 11.3 0.00 0.00 0.00 100 1016.5
20260504010222 22 109 8.0 9.7 0.00 0.00 0.00 100 1016.7
20260504005723 22 109 8.0 9.7 0.00 0.00 0.00 100 1016.7
20260504005222 23 106 8.0 12.9 0.00 0.00 0.00 100 1016.6
20260504004722 23 106 9.7 12.9 0.00 0.00 0.00 100 1016.7
20260504004223 23 113 11.3 14.5 0.00 0.00 0.00 100 1016.7
20260504003722 23 111 11.3 14.5 0.00 0.00 0.00 100 1016.8
20260504003222 23 124 11.3 16.1 0.00 0.00 0.00 100 1016.8
20260504002722 23 112 11.3 17.7 0.00 0.00 0.00 100 1016.7
20260504001722 24 108 14.5 22.5 0.00 0.00 0.00 100 1016.9
20260504001222 24 110 14.5 22.5 0.00 0.00 0.00 100 1016.7
20260504000723 24 120 14.5 22.5 0.00 0.00 0.00 100 1016.8
20260504000223 24 120 16.1 20.9 0.00 0.00 0.00 100 1016.8
20260503235723 24 96 16.1 22.5 0.00 0.00 0.00 100 1016.8
20260503235222 24 116 16.1 22.5 0.00 0.00 0.00 100 1016.7
20260503234722 25 126 14.5 20.9 0.00 0.00 0.00 100 1016.8
20260503234223 25 119 14.5 20.9 0.00 0.00 0.00 100 1016.7
20260503233222 25 90 14.5 22.5 0.00 0.00 0.00 100 1016.8
20260503232723 25 123 16.1 24.1 0.00 0.00 0.00 100 1017.0
20260503232222 25 112 16.1 24.1 0.00 0.00 0.00 100 1017.0
20260503231722 25 121 16.1 22.5 0.00 0.00 0.00 100 1017.1
20260503231223 25 127 16.1 25.7 0.00 0.00 0.00 100 1017.1
20260503230723 25 118 17.7 25.7 0.00 0.00 0.00 100 1017.0
20260503225223 25 112 14.5 24.1 0.00 0.00 0.00 100 1017.1
20260503224723 25 102 14.5 22.5 0.00 0.00 0.00 100 1017.1
20260503224222 25 105 16.1 22.5 0.00 0.00 0.00 100 1017.1
20260503223722 25 103 17.7 29.0 0.00 0.00 0.00 100 1017.1
20260503222723 25 84 14.5 25.7 0.00 0.00 0.00 100 1017.2
20260503222220 25 116 16.1 22.5 0.00 0.00 0.00 100 1017.4
20260503221221 25 155 17.7 29.0 0.00 0.00 0.00 100 1017.4
20260503220720 26 103 16.1 29.0 0.00 0.00 0.00 100 1017.5
20260503220220 25 118 16.1 25.7 0.00 0.00 0.00 100 1017.6
20260503215721 25 107 16.1 25.7 0.00 0.00 0.00 100 1017.6
20260503215220 25 124 17.7 29.0 0.00 0.00 0.00 100 1017.7
20260503214720 26 109 17.7 29.0 0.00 0.00 0.00 100 1017.8
20260503213219 26 125 16.1 37.0 0.00 0.00 0.00 100 1018.0
20260503212719 26 103 14.5 25.7 0.00 0.00 0.00 100 1018.1
20260503211719 26 153 17.7 30.6 0.00 0.00 0.00 100 1018.4
20260503211219 26 87 16.1 25.7 0.00 0.00 0.00 100 1018.3
20260503210718 26 98 16.1 25.7 0.00 0.00 0.00 100 1018.5
20260503210219 26 119 14.5 22.5 0.00 0.00 0.00 100 1018.5
20260503205719 26 121 16.1 24.1 0.00 0.00 0.00 100 1018.5
20260503204719 26 117 17.7 30.6 0.00 0.00 0.00 100 1018.6
20260503204219 26 90 16.1 30.6 0.00 0.00 0.00 100 1018.7
20260503203217 26 92 16.1 29.0 0.00 0.00 0.00 100 1018.9
20260503202718 26 93 14.5 24.1 0.00 0.00 0.00 100 1019.1
20260503202217 26 88 16.1 30.6 0.00 0.00 0.00 100 1019.1
20260503201716 26 113 16.1 30.6 0.00 0.00 0.00 100 1019.1
20260503200717 26 107 16.1 29.0 0.00 0.00 0.00 100 1019.3
20260503200215 26 103 16.1 29.0 0.00 0.00 0.00 100 1019.3
20260503195714 26 82 17.7 29.0 0.00 0.00 0.00 100 1019.4
20260503195215 26 141 16.1 29.0 0.00 0.00 0.00 100 1019.5
20260503194715 26 106 16.1 29.0 0.00 0.00 0.00 100 1019.5
20260503194214 26 98 16.1 29.0 0.00 0.00 0.00 100 1019.6
20260503193213 26 115 16.1 29.0 0.00 0.00 0.00 100 1019.6
20260503192713 26 111 16.1 29.0 0.00 0.00 0.00 100 1019.6
20260503192213 26 103 16.1 25.7 0.00 0.00 0.00 100 1019.7
20260503191712 26 121 16.1 25.7 0.00 0.00 0.00 100 1019.8
20260503190711 26 116 17.7 33.8 0.00 0.00 0.00 100 1020.0
20260503190211 26 88 17.7 33.8 0.00 0.00 0.00 100 1020.0
20260503185711 26 123 16.1 32.2 0.00 0.00 0.00 100 1020.1
20260503184711 26 98 16.1 29.0 0.00 0.00 0.00 100 1020.1
20260503184210 26 137 16.1 30.6 0.00 0.00 0.00 100 1020.1
20260503183711 26 118 17.7 30.6 0.00 0.00 0.00 100 1020.2
20260503183211 26 87 17.7 30.6 0.00 0.00 0.00 100 1020.2
20260503182711 26 110 17.7 33.8 0.00 0.00 0.00 100 1020.3
20260503181708 26 113 16.1 24.1 0.00 0.00 0.00 100 1020.4
20260503181209 26 113 16.1 32.2 0.00 0.00 0.00 100 1020.6
20260503180709 26 78 14.5 32.2 0.00 0.00 0.00 100 1020.6
20260503180209 26 117 14.5 32.2 0.00 0.00 0.00 100 1020.7
20260503175709 26 77 17.7 32.2 0.00 0.00 0.00 100 1020.8
20260503175209 26 74 17.7 29.0 0.00 0.00 0.00 100 1020.8
20260503174709 26 92 17.7 25.7 0.00 0.00 0.00 100 1020.8
20260503174209 26 75 17.7 29.0 0.00 0.00 0.00 100 1020.9
20260503173207 26 113 12.9 22.5 0.00 0.00 0.00 100 1021.0
20260503172707 26 82 14.5 29.0 0.00 0.00 0.00 100 1021.1
20260503172207 26 78 16.1 29.0 0.00 0.00 0.00 100 1021.2
20260503171707 26 96 16.1 32.2 0.00 0.00 0.00 100 1021.2
20260503171207 26 114 16.1 32.2 0.00 0.00 0.00 100 1021.3
20260503170707 26 107 14.5 29.0 0.00 0.00 0.00 100 1021.3
20260503170207 26 81 14.5 29.0 0.00 0.00 0.00 100 1021.2
20260503160205 25 94 12.9 19.3 0.00 0.00 0.00 100 1021.5
20260503150702 25 90 8.0 16.1 0.00 0.00 0.00 100 1021.5
20260503150201 24 73 8.0 16.1 0.00 0.00 0.00 100 1021.4
20260503140159 22 0 8.0 12.9 0.00 0.00 0.00 100 1021.0
20260503130657 19 339 6.4 9.7 0.00 0.00 0.00 100 1020.4
20260503130157 18 333 6.4 11.3 0.00 0.00 0.00 100 1020.3
20260503120155 14 327 4.8 8.0 0.00 0.00 0.00 100 1019.7
20260503110652 13 325 4.8 8.0 0.00 0.00 0.00 100 1019.4
20260503110152 13 325 4.8 8.0 0.00 0.00 0.00 100 1019.4